iso_date,epoch_date,Year,Hour,Min,DOY,POS_DOY,Lat,Lon,BP,Ts,Ta,has_bp,has_ts,has_ta,BuoyID,Buoy_Type,Buoy_Owner,Logistics,Hemisphere
2015-10-19T18:00:00Z,1445277600,2015,18,0,292.75,-999.0,84.36096,141.7869,998.8,-3.6,-7.9,yes,yes,yes,300234062784500,PAWS,AWI-USIABP,unknown,North
2015-10-19T21:00:00Z,1445288400,2015,21,0,292.875,-999.0,84.36708,142.08894,996.3,-3.6,-8.2,yes,yes,yes,300234062784500,PAWS,AWI-USIABP,unknown,North
2015-10-20T00:00:00Z,1445299200,2015,0,0,293.0,-999.0,84.37068,142.4268,994.8,-3.6,-5.3,yes,yes,yes,300234062784500,PAWS,AWI-USIABP,unknown,North
2015-10-20T03:00:00Z,1445310000,2015,3,0,293.125,-999.0,84.36654,142.78176,995.0,-3.5,-5.9,yes,yes,yes,300234062784500,PAWS,AWI-USIABP,unknown,North
2015-10-20T06:00:00Z,1445320800,2015,6,0,293.25,-999.0,84.36618,143.10198,994.6,-3.4,-6.9,yes,yes,yes,300234062784500,PAWS,AWI-USIABP,unknown,North
2015-10-20T09:00:00Z,1445331600,2015,9,0,293.375,-999.0,84.3723,143.44686,994.5,-3.4,-7.1,yes,yes,yes,300234062784500,PAWS,AWI-USIABP,unknown,North
2015-10-20T12:00:00Z,1445342400,2015,12,0,293.5,-999.0,84.38328,143.79498,993.7,-3.5,-9.0,yes,yes,yes,300234062784500,PAWS,AWI-USIABP,unknown,North
2015-10-20T15:00:00Z,1445353200,2015,15,0,293.625,-999.0,84.39714,144.16434,991.9,-3.5,-8.0,yes,yes,yes,300234062784500,PAWS,AWI-USIABP,unknown,North
2015-10-20T18:00:00Z,1445364000,2015,18,0,293.75,-999.0,84.4074,144.59238,991.7,-3.5,-6.6,yes,yes,yes,300234062784500,PAWS,AWI-USIABP,unknown,North
2015-10-20T21:00:00Z,1445374800,2015,21,0,293.875,-999.0,84.40578,145.00278,993.1,-3.5,-6.2,yes,yes,yes,300234062784500,PAWS,AWI-USIABP,unknown,North
2015-10-21T00:00:00Z,1445385600,2015,0,0,294.0,-999.0,84.4047,145.27638,994.2,-3.4,-5.6,yes,yes,yes,300234062784500,PAWS,AWI-USIABP,unknown,North
2015-10-21T03:00:00Z,1445396400,2015,3,0,294.125,-999.0,84.41712,145.55502,995.1,-3.4,-5.6,yes,yes,yes,300234062784500,PAWS,AWI-USIABP,unknown,North
2015-10-21T06:00:00Z,1445407200,2015,6,0,294.25,-999.0,84.43116,145.94994,996.1,-3.3,-6.0,yes,yes,yes,300234062784500,PAWS,AWI-USIABP,unknown,North
2015-10-21T09:00:00Z,1445418000,2015,9,0,294.375,-999.0,84.43494,146.31552,997.5,-3.3,-6.8,yes,yes,yes,300234062784500,PAWS,AWI-USIABP,unknown,North
2015-10-21T12:00:00Z,1445428800,2015,12,0,294.5,-999.0,84.43926,146.55294,998.5,-3.3,-5.9,yes,yes,yes,300234062784500,PAWS,AWI-USIABP,unknown,North
2015-10-21T15:00:00Z,1445439600,2015,15,0,294.625,-999.0,84.44736,146.78874,1001.0,-3.2,-7.6,yes,yes,yes,300234062784500,PAWS,AWI-USIABP,unknown,North
2015-10-21T18:00:00Z,1445450400,2015,18,0,294.75,-999.0,84.44124,146.96478,1005.6,-3.3,-10.7,yes,yes,yes,300234062784500,PAWS,AWI-USIABP,unknown,North
2015-10-21T21:00:00Z,1445461200,2015,21,0,294.875,-999.0,84.43548,146.9439,1008.7,-3.4,-13.3,yes,yes,yes,300234062784500,PAWS,AWI-USIABP,unknown,North
2015-10-22T00:00:00Z,1445472000,2015,0,0,295.0,-999.0,84.44466,146.87082,1010.8,-3.4,-12.0,yes,yes,yes,300234062784500,PAWS,AWI-USIABP,unknown,North
2015-10-22T03:00:00Z,1445482800,2015,3,0,295.125,-999.0,84.45654,146.88522,1012.2,-3.4,-10.2,yes,yes,yes,300234062784500,PAWS,AWI-USIABP,unknown,North
2015-10-22T06:00:00Z,1445493600,2015,6,0,295.25,-999.0,84.46806,146.98782,1013.4,-3.4,-8.7,yes,yes,yes,300234062784500,PAWS,AWI-USIABP,unknown,North
2015-10-22T09:00:00Z,1445504400,2015,9,0,295.375,-999.0,84.48192,147.05478,1013.6,-3.4,-9.2,yes,yes,yes,300234062784500,PAWS,AWI-USIABP,unknown,North
2015-10-22T12:00:00Z,1445515200,2015,12,0,295.5,-999.0,84.50082,147.05424,1013.4,-3.4,-11.8,yes,yes,yes,300234062784500,PAWS,AWI-USIABP,unknown,North
2015-10-22T15:00:00Z,1445526000,2015,15,0,295.625,-999.0,84.5244,147.0483,1011.4,-3.6,-11.4,yes,yes,yes,300234062784500,PAWS,AWI-USIABP,unknown,North
2015-10-22T18:00:00Z,1445536800,2015,18,0,295.75,-999.0,84.5505,147.06396,1009.0,-3.7,-11.6,yes,yes,yes,300234062784500,PAWS,AWI-USIABP,unknown,North
2015-10-22T21:00:00Z,1445547600,2015,21,0,295.875,-999.0,84.56868,147.18258,1008.0,-3.7,-10.9,yes,yes,yes,300234062784500,PAWS,AWI-USIABP,unknown,North
2015-10-23T00:00:00Z,1445558400,2015,0,0,296.0,-999.0,84.57948,147.33846,1008.8,-3.7,-9.9,yes,yes,yes,300234062784500,PAWS,AWI-USIABP,unknown,North
2015-10-23T03:00:00Z,1445569200,2015,3,0,296.125,-999.0,84.59028,147.45618,1010.3,-3.7,-14.0,yes,yes,yes,300234062784500,PAWS,AWI-USIABP,unknown,North
2015-10-23T06:00:00Z,1445580000,2015,6,0,296.25,-999.0,84.60306,147.55464,1011.7,-3.8,-16.2,yes,yes,yes,300234062784500,PAWS,AWI-USIABP,unknown,North
2015-10-23T09:00:00Z,1445590800,2015,9,0,296.375,-999.0,84.61368,147.66318,1012.8,-3.9,-16.1,yes,yes,yes,300234062784500,PAWS,AWI-USIABP,unknown,North
2015-10-23T12:00:00Z,1445601600,2015,12,0,296.5,-999.0,84.62376,147.73428,1013.7,-4.0,-14.3,yes,yes,yes,300234062784500,PAWS,AWI-USIABP,unknown,North
2015-10-23T15:00:00Z,1445612400,2015,15,0,296.625,-999.0,84.63708,147.80106,1014.6,-4.1,-16.8,yes,yes,yes,300234062784500,PAWS,AWI-USIABP,unknown,North
2015-10-23T18:00:00Z,1445623200,2015,18,0,296.75,-999.0,84.64932,147.88116,1015.5,-4.2,-18.4,yes,yes,yes,300234062784500,PAWS,AWI-USIABP,unknown,North
2015-10-23T21:00:00Z,1445634000,2015,21,0,296.875,-999.0,84.65652,147.94614,1016.5,-4.3,-18.0,yes,yes,yes,300234062784500,PAWS,AWI-USIABP,unknown,North
2015-10-24T00:00:00Z,1445644800,2015,0,0,297.0,-999.0,84.663,147.94632,1017.3,-4.4,-19.5,yes,yes,yes,300234062784500,PAWS,AWI-USIABP,unknown,North
2015-10-24T03:00:00Z,1445655600,2015,3,0,297.125,-999.0,84.6747,147.93822,1017.3,-4.6,-21.2,yes,yes,yes,300234062784500,PAWS,AWI-USIABP,unknown,North
2015-10-24T06:00:00Z,1445666400,2015,6,0,297.25,-999.0,84.68694,147.96756,1017.0,-4.7,-20.8,yes,yes,yes,300234062784500,PAWS,AWI-USIABP,unknown,North
2015-10-24T09:00:00Z,1445677200,2015,9,0,297.375,-999.0,84.69432,147.98772,1017.2,-4.8,-19.8,yes,yes,yes,300234062784500,PAWS,AWI-USIABP,unknown,North
2015-10-24T12:00:00Z,1445688000,2015,12,0,297.5,-999.0,84.70116,147.95658,1016.5,-4.8,-15.3,yes,yes,yes,300234062784500,PAWS,AWI-USIABP,unknown,North
2015-10-24T15:00:00Z,1445698800,2015,15,0,297.625,-999.0,84.71376,147.9105,1015.1,-4.7,-11.3,yes,yes,yes,300234062784500,PAWS,AWI-USIABP,unknown,North
2015-10-24T18:00:00Z,1445709600,2015,18,0,297.75,-999.0,84.72798,147.91698,1014.0,-4.5,-8.3,yes,yes,yes,300234062784500,PAWS,AWI-USIABP,unknown,North
2015-10-24T21:00:00Z,1445720400,2015,21,0,297.875,-999.0,84.73914,147.94398,1013.0,-4.3,-7.2,yes,yes,yes,300234062784500,PAWS,AWI-USIABP,unknown,North
2015-10-25T00:00:00Z,1445731200,2015,0,0,298.0,-999.0,84.75372,147.93768,1012.5,-4.2,-8.2,yes,yes,yes,300234062784500,PAWS,AWI-USIABP,unknown,North
2015-10-25T03:00:00Z,1445742000,2015,3,0,298.125,-999.0,84.77226,147.93228,1012.0,-4.2,-10.3,yes,yes,yes,300234062784500,PAWS,AWI-USIABP,unknown,North
2015-10-25T06:00:00Z,1445752800,2015,6,0,298.25,-999.0,84.79026,147.96252,1011.3,-4.3,-11.5,yes,yes,yes,300234062784500,PAWS,AWI-USIABP,unknown,North
2015-10-25T09:00:00Z,1445763600,2015,9,0,298.375,-999.0,84.8025,147.97296,1010.7,-4.3,-15.7,yes,yes,yes,300234062784500,PAWS,AWI-USIABP,unknown,North
2015-10-25T12:00:00Z,1445774400,2015,12,0,298.5,-999.0,84.8133,147.9222,1009.9,-4.5,-18.4,yes,yes,yes,300234062784500,PAWS,AWI-USIABP,unknown,North
2015-10-25T15:00:00Z,1445785200,2015,15,0,298.625,-999.0,84.82752,147.87252,1008.8,-4.7,-18.2,yes,yes,yes,300234062784500,PAWS,AWI-USIABP,unknown,North
2015-10-25T18:00:00Z,1445796000,2015,18,0,298.75,-999.0,84.84192,147.85974,1007.8,-4.8,-16.8,yes,yes,yes,300234062784500,PAWS,AWI-USIABP,unknown,North
2015-10-25T21:00:00Z,1445806800,2015,21,0,298.875,-999.0,84.85146,147.84822,1007.0,-4.8,-14.8,yes,yes,yes,300234062784500,PAWS,AWI-USIABP,unknown,North
2015-10-26T00:00:00Z,1445817600,2015,0,0,299.0,-999.0,84.85992,147.8178,1006.5,-4.7,-11.5,yes,yes,yes,300234062784500,PAWS,AWI-USIABP,unknown,North
2015-10-26T03:00:00Z,1445828400,2015,3,0,299.125,-999.0,84.8718,147.80628,1006.0,-4.6,-12.7,yes,yes,yes,300234062784500,PAWS,AWI-USIABP,unknown,North
2015-10-26T06:00:00Z,1445839200,2015,6,0,299.25,-999.0,84.88512,147.84174,1005.4,-4.6,-13.4,yes,yes,yes,300234062784500,PAWS,AWI-USIABP,unknown,North
2015-10-26T09:00:00Z,1445850000,2015,9,0,299.375,-999.0,84.89592,147.87522,1005.1,-4.6,-15.0,yes,yes,yes,300234062784500,PAWS,AWI-USIABP,unknown,North
2015-10-26T12:00:00Z,1445860800,2015,12,0,299.5,-999.0,84.90888,147.8682,1004.5,-4.6,-10.9,yes,yes,yes,300234062784500,PAWS,AWI-USIABP,unknown,North
2015-10-26T15:00:00Z,1445871600,2015,15,0,299.625,-999.0,84.92634,147.87378,1004.0,-4.6,-12.6,yes,yes,yes,300234062784500,PAWS,AWI-USIABP,unknown,North
2015-10-26T18:00:00Z,1445882400,2015,18,0,299.75,-999.0,84.94506,147.9339,1003.9,-4.7,-15.4,yes,yes,yes,300234062784500,PAWS,AWI-USIABP,unknown,North
2015-10-26T21:00:00Z,1445893200,2015,21,0,299.875,-999.0,84.96054,147.987,1004.3,-4.7,-16.0,yes,yes,yes,300234062784500,PAWS,AWI-USIABP,unknown,North
2015-10-27T00:00:00Z,1445904000,2015,0,0,300.0,-999.0,84.9744,147.9852,1004.6,-4.8,-16.5,yes,yes,yes,300234062784500,PAWS,AWI-USIABP,unknown,North
2015-10-27T03:00:00Z,1445914800,2015,3,0,300.125,-999.0,84.9888,147.97458,1004.7,-4.9,-16.0,yes,yes,yes,300234062784500,PAWS,AWI-USIABP,unknown,North
2015-10-27T06:00:00Z,1445925600,2015,6,0,300.25,-999.0,85.00158,147.98664,1004.6,-4.9,-17.7,yes,yes,yes,300234062784500,PAWS,AWI-USIABP,unknown,North
2015-10-27T09:00:00Z,1445936400,2015,9,0,300.375,-999.0,85.01112,147.99258,1004.9,-4.9,-15.9,yes,yes,yes,300234062784500,PAWS,AWI-USIABP,unknown,North
2015-10-27T12:00:00Z,1445947200,2015,12,0,300.5,-999.0,85.01976,147.96216,1004.8,-5.0,-19.0,yes,yes,yes,300234062784500,PAWS,AWI-USIABP,unknown,North
2015-10-27T15:00:00Z,1445958000,2015,15,0,300.625,-999.0,85.02912,147.92346,1005.0,-5.1,-21.0,yes,yes,yes,300234062784500,PAWS,AWI-USIABP,unknown,North
2015-10-27T18:00:00Z,1445968800,2015,18,0,300.75,-999.0,85.03776,147.90726,1005.2,-5.2,-21.4,yes,yes,yes,300234062784500,PAWS,AWI-USIABP,unknown,North
2015-10-27T21:00:00Z,1445979600,2015,21,0,300.875,-999.0,85.04496,147.89268,1005.6,-5.3,-19.2,yes,yes,yes,300234062784500,PAWS,AWI-USIABP,unknown,North
2015-10-28T00:00:00Z,1445990400,2015,0,0,301.0,-999.0,85.05252,147.85902,1006.0,-5.3,-18.0,yes,yes,yes,300234062784500,PAWS,AWI-USIABP,unknown,North
2015-10-28T03:00:00Z,1446001200,2015,3,0,301.125,-999.0,85.0617,147.82194,1006.4,-5.3,-20.4,yes,yes,yes,300234062784500,PAWS,AWI-USIABP,unknown,North
2015-10-28T06:00:00Z,1446012000,2015,6,0,301.25,-999.0,85.07124,147.81402,1006.2,-5.4,-21.5,yes,yes,yes,300234062784500,PAWS,AWI-USIABP,unknown,North
2015-10-28T09:00:00Z,1446022800,2015,9,0,301.375,-999.0,85.08078,147.80862,1006.6,-5.5,-20.6,yes,yes,yes,300234062784500,PAWS,AWI-USIABP,unknown,North
2015-10-28T12:00:00Z,1446033600,2015,12,0,301.5,-999.0,85.09158,147.79404,1006.4,-5.5,-15.5,yes,yes,yes,300234062784500,PAWS,AWI-USIABP,unknown,North
2015-10-28T15:00:00Z,1446044400,2015,15,0,301.625,-999.0,85.10346,147.78396,1006.5,-5.4,-13.1,yes,yes,yes,300234062784500,PAWS,AWI-USIABP,unknown,North
2015-10-28T18:00:00Z,1446055200,2015,18,0,301.75,-999.0,85.11498,147.80106,1007.1,-5.4,-14.7,yes,yes,yes,300234062784500,PAWS,AWI-USIABP,unknown,North
2015-10-28T21:00:00Z,1446066000,2015,21,0,301.875,-999.0,85.12542,147.81816,1007.9,-5.4,-16.0,yes,yes,yes,300234062784500,PAWS,AWI-USIABP,unknown,North
2015-10-29T00:00:00Z,1446076800,2015,0,0,302.0,-999.0,85.13622,147.80196,1008.8,-5.4,-17.6,yes,yes,yes,300234062784500,PAWS,AWI-USIABP,unknown,North
2015-10-29T03:00:00Z,1446087600,2015,3,0,302.125,-999.0,85.1472,147.76974,1009.2,-5.5,-19.9,yes,yes,yes,300234062784500,PAWS,AWI-USIABP,unknown,North
2015-10-29T06:00:00Z,1446098400,2015,6,0,302.25,-999.0,85.15728,147.75156,1009.7,-5.6,-20.9,yes,yes,yes,300234062784500,PAWS,AWI-USIABP,unknown,North
2015-10-29T09:00:00Z,1446109200,2015,9,0,302.375,-999.0,85.16664,147.72492,1010.6,-5.7,-20.6,yes,yes,yes,300234062784500,PAWS,AWI-USIABP,unknown,North
2015-10-29T12:00:00Z,1446120000,2015,12,0,302.5,-999.0,85.17726,147.6702,1010.7,-5.8,-21.1,yes,yes,yes,300234062784500,PAWS,AWI-USIABP,unknown,North
2015-10-29T15:00:00Z,1446130800,2015,15,0,302.625,-999.0,85.18842,147.60828,1010.9,-5.8,-23.7,yes,yes,yes,300234062784500,PAWS,AWI-USIABP,unknown,North
2015-10-29T18:00:00Z,1446141600,2015,18,0,302.75,-999.0,85.19706,147.53556,1010.9,-5.9,-22.8,yes,yes,yes,300234062784500,PAWS,AWI-USIABP,unknown,North
2015-10-29T21:00:00Z,1446152400,2015,21,0,302.875,-999.0,85.20354,147.45528,1010.5,-5.9,-24.8,yes,yes,yes,300234062784500,PAWS,AWI-USIABP,unknown,North
2015-10-30T00:00:00Z,1446163200,2015,0,0,303.0,-999.0,85.21056,147.35412,1009.5,-6.0,-22.1,yes,yes,yes,300234062784500,PAWS,AWI-USIABP,unknown,North
2015-10-30T03:00:00Z,1446174000,2015,3,0,303.125,-999.0,85.21758,147.2472,1008.8,-6.0,-17.6,yes,yes,yes,300234062784500,PAWS,AWI-USIABP,unknown,North
2015-10-30T06:00:00Z,1446184800,2015,6,0,303.25,-999.0,85.2237,147.14406,1008.5,-6.0,-15.5,yes,yes,yes,300234062784500,PAWS,AWI-USIABP,unknown,North
2015-10-30T09:00:00Z,1446195600,2015,9,0,303.375,-999.0,85.2309,147.03894,1009.1,-5.9,-15.8,yes,yes,yes,300234062784500,PAWS,AWI-USIABP,unknown,North
2015-10-30T12:00:00Z,1446206400,2015,12,0,303.5,-999.0,85.23666,146.93886,1009.5,-5.9,-16.1,yes,yes,yes,300234062784500,PAWS,AWI-USIABP,unknown,North
2015-10-30T15:00:00Z,1446217200,2015,15,0,303.625,-999.0,85.24134,146.85066,1009.4,-5.9,-21.4,yes,yes,yes,300234062784500,PAWS,AWI-USIABP,unknown,North
2015-10-30T18:00:00Z,1446228000,2015,18,0,303.75,-999.0,85.24584,146.76984,1008.9,-6.0,-22.2,yes,yes,yes,300234062784500,PAWS,AWI-USIABP,unknown,North
2015-10-30T21:00:00Z,1446238800,2015,21,0,303.875,-999.0,85.24944,146.67642,1008.9,-6.0,-18.9,yes,yes,yes,300234062784500,PAWS,AWI-USIABP,unknown,North
2015-10-31T00:00:00Z,1446249600,2015,0,0,304.0,-999.0,85.25322,146.57256,1008.8,-6.0,-20.9,yes,yes,yes,300234062784500,PAWS,AWI-USIABP,unknown,North
2015-10-31T03:00:00Z,1446260400,2015,3,0,304.125,-999.0,85.25808,146.47734,1008.5,-5.9,-16.9,yes,yes,yes,300234062784500,PAWS,AWI-USIABP,unknown,North
2015-10-31T06:00:00Z,1446271200,2015,6,0,304.25,-999.0,85.26294,146.38968,1007.8,-5.9,-15.7,yes,yes,yes,300234062784500,PAWS,AWI-USIABP,unknown,North
2015-10-31T09:00:00Z,1446282000,2015,9,0,304.375,-999.0,85.26852,146.30328,1007.8,-5.8,-13.7,yes,yes,yes,300234062784500,PAWS,AWI-USIABP,unknown,North
2015-10-31T12:00:00Z,1446292800,2015,12,0,304.5,-999.0,85.27824,146.21598,1007.7,-5.8,-16.5,yes,yes,yes,300234062784500,PAWS,AWI-USIABP,unknown,North
2015-10-31T15:00:00Z,1446303600,2015,15,0,304.625,-999.0,85.2894,146.14578,1006.5,-5.9,-20.4,yes,yes,yes,300234062784500,PAWS,AWI-USIABP,unknown,North
2015-10-31T18:00:00Z,1446314400,2015,18,0,304.75,-999.0,85.29858,146.1078,1005.4,-6.0,-20.7,yes,yes,yes,300234062784500,PAWS,AWI-USIABP,unknown,North
2015-10-31T21:00:00Z,1446325200,2015,21,0,304.875,-999.0,85.3056,146.07774,1004.8,-6.1,-21.4,yes,yes,yes,300234062784500,PAWS,AWI-USIABP,unknown,North
2015-11-01T00:00:00Z,1446336000,2015,0,0,305.0,-999.0,85.31334,146.04444,1003.5,-6.2,-25.7,yes,yes,yes,300234062784500,PAWS,AWI-USIABP,unknown,North
2015-11-01T03:00:00Z,1446346800,2015,3,0,305.125,-999.0,85.32126,146.01906,1002.3,-6.3,-22.8,yes,yes,yes,300234062784500,PAWS,AWI-USIABP,unknown,North
2015-11-01T06:00:00Z,1446357600,2015,6,0,305.25,-999.0,85.32612,146.02158,1001.1,-6.3,-22.0,yes,yes,yes,300234062784500,PAWS,AWI-USIABP,unknown,North
2015-11-01T09:00:00Z,1446368400,2015,9,0,305.375,-999.0,85.32864,146.03076,1000.7,-6.3,-23.7,yes,yes,yes,300234062784500,PAWS,AWI-USIABP,unknown,North
2015-11-01T12:00:00Z,1446379200,2015,12,0,305.5,-999.0,85.33224,146.03436,999.9,-6.4,-24.4,yes,yes,yes,300234062784500,PAWS,AWI-USIABP,unknown,North
2015-11-01T15:00:00Z,1446390000,2015,15,0,305.625,-999.0,85.33764,146.0619,999.5,-6.5,-25.9,yes,yes,yes,300234062784500,PAWS,AWI-USIABP,unknown,North
2015-11-01T18:00:00Z,1446400800,2015,18,0,305.75,-999.0,85.34214,146.12958,999.4,-6.6,-26.1,yes,yes,yes,300234062784500,PAWS,AWI-USIABP,unknown,North
2015-11-01T21:00:00Z,1446411600,2015,21,0,305.875,-999.0,85.34592,146.22408,1000.0,-6.6,-22.7,yes,yes,yes,300234062784500,PAWS,AWI-USIABP,unknown,North
2015-11-02T00:00:00Z,1446422400,2015,0,0,306.0,-999.0,85.35168,146.32524,1000.9,-6.7,-24.0,yes,yes,yes,300234062784500,PAWS,AWI-USIABP,unknown,North
2015-11-02T03:00:00Z,1446433200,2015,3,0,306.125,-999.0,85.35996,146.4498,1001.7,-6.7,-21.1,yes,yes,yes,300234062784500,PAWS,AWI-USIABP,unknown,North
2015-11-02T06:00:00Z,1446444000,2015,6,0,306.25,-999.0,85.36752,146.58606,1002.1,-6.7,-17.1,yes,yes,yes,300234062784500,PAWS,AWI-USIABP,unknown,North
2015-11-02T09:00:00Z,1446454800,2015,9,0,306.375,-999.0,85.37382,146.6946,1002.5,-6.7,-19.4,yes,yes,yes,300234062784500,PAWS,AWI-USIABP,unknown,North
2015-11-02T12:00:00Z,1446465600,2015,12,0,306.5,-999.0,85.38156,146.79504,1003.4,-6.8,-20.3,yes,yes,yes,300234062784500,PAWS,AWI-USIABP,unknown,North
2015-11-02T15:00:00Z,1446476400,2015,15,0,306.625,-999.0,85.39128,146.91618,1003.9,-6.8,-20.4,yes,yes,yes,300234062784500,PAWS,AWI-USIABP,unknown,North
2015-11-02T18:00:00Z,1446487200,2015,18,0,306.75,-999.0,85.4001,147.05694,1004.2,-6.9,-19.9,yes,yes,yes,300234062784500,PAWS,AWI-USIABP,unknown,North
2015-11-02T21:00:00Z,1446498000,2015,21,0,306.875,-999.0,85.4082,147.18492,1004.2,-6.9,-19.5,yes,yes,yes,300234062784500,PAWS,AWI-USIABP,unknown,North
2015-11-03T00:00:00Z,1446508800,2015,0,0,307.0,-999.0,85.419,147.31326,1004.6,-6.9,-18.9,yes,yes,yes,300234062784500,PAWS,AWI-USIABP,unknown,North
2015-11-03T03:00:00Z,1446519600,2015,3,0,307.125,-999.0,85.43124,147.4614,1004.4,-7.0,-18.7,yes,yes,yes,300234062784500,PAWS,AWI-USIABP,unknown,North
2015-11-03T06:00:00Z,1446530400,2015,6,0,307.25,-999.0,85.44204,147.62196,1004.3,-7.0,-19.4,yes,yes,yes,300234062784500,PAWS,AWI-USIABP,unknown,North
2015-11-03T09:00:00Z,1446541200,2015,9,0,307.375,-999.0,85.45176,147.78828,1004.6,-7.1,-18.7,yes,yes,yes,300234062784500,PAWS,AWI-USIABP,unknown,North
2015-11-03T12:00:00Z,1446552000,2015,12,0,307.5,-999.0,85.46202,147.9321,1004.8,-7.1,-18.9,yes,yes,yes,300234062784500,PAWS,AWI-USIABP,unknown,North
2015-11-03T15:00:00Z,1446562800,2015,15,0,307.625,-999.0,85.47318,148.08276,1004.4,-7.2,-19.1,yes,yes,yes,300234062784500,PAWS,AWI-USIABP,unknown,North
2015-11-03T18:00:00Z,1446573600,2015,18,0,307.75,-999.0,85.48272,148.23486,1004.0,-7.3,-18.2,yes,yes,yes,300234062784500,PAWS,AWI-USIABP,unknown,North
2015-11-03T21:00:00Z,1446584400,2015,21,0,307.875,-999.0,85.49028,148.36284,1004.0,-7.3,-19.5,yes,yes,yes,300234062784500,PAWS,AWI-USIABP,unknown,North
2015-11-04T00:00:00Z,1446595200,2015,0,0,308.0,-999.0,85.49802,148.46418,1003.8,-7.4,-18.2,yes,yes,yes,300234062784500,PAWS,AWI-USIABP,unknown,North
2015-11-04T03:00:00Z,1446606000,2015,3,0,308.125,-999.0,85.50558,148.55148,1004.3,-7.4,-17.7,yes,yes,yes,300234062784500,PAWS,AWI-USIABP,unknown,North
2015-11-04T06:00:00Z,1446616800,2015,6,0,308.25,-999.0,85.51188,148.626,1004.2,-7.3,-16.8,yes,yes,yes,300234062784500,PAWS,AWI-USIABP,unknown,North
2015-11-04T09:00:00Z,1446627600,2015,9,0,308.375,-999.0,85.51584,148.67964,1005.1,-7.2,-18.0,yes,yes,yes,300234062784500,PAWS,AWI-USIABP,unknown,North
2015-11-04T12:00:00Z,1446638400,2015,12,0,308.5,-999.0,85.5198,148.70862,1005.5,-7.1,-15.2,yes,yes,yes,300234062784500,PAWS,AWI-USIABP,unknown,North
2015-11-04T15:00:00Z,1446649200,2015,15,0,308.625,-999.0,85.5252,148.73418,1006.0,-7.0,-15.6,yes,yes,yes,300234062784500,PAWS,AWI-USIABP,unknown,North
2015-11-04T18:00:00Z,1446660000,2015,18,0,308.75,-999.0,85.5315,148.76568,1005.5,-6.9,-15.5,yes,yes,yes,300234062784500,PAWS,AWI-USIABP,unknown,North
2015-11-04T21:00:00Z,1446670800,2015,21,0,308.875,-999.0,85.53978,148.80852,1004.0,-6.9,-14.1,yes,yes,yes,300234062784500,PAWS,AWI-USIABP,unknown,North
2015-11-05T00:00:00Z,1446681600,2015,0,0,309.0,-999.0,85.55112,148.878,1001.9,-6.9,-14.1,yes,yes,yes,300234062784500,PAWS,AWI-USIABP,unknown,North
2015-11-05T03:00:00Z,1446692400,2015,3,0,309.125,-999.0,85.56282,148.98294,999.2,-6.9,-12.0,yes,yes,yes,300234062784500,PAWS,AWI-USIABP,unknown,North
2015-11-05T06:00:00Z,1446703200,2015,6,0,309.25,-999.0,85.57056,149.13324,997.4,-6.8,-7.6,yes,yes,yes,300234062784500,PAWS,AWI-USIABP,unknown,North
2015-11-05T09:00:00Z,1446714000,2015,9,0,309.375,-999.0,85.57272,149.31,997.7,-6.6,-5.0,yes,yes,yes,300234062784500,PAWS,AWI-USIABP,unknown,North
2015-11-05T12:00:00Z,1446724800,2015,12,0,309.5,-999.0,85.5738,149.47686,998.0,-6.4,-5.1,yes,yes,yes,300234062784500,PAWS,AWI-USIABP,unknown,North
2015-11-05T15:00:00Z,1446735600,2015,15,0,309.625,-999.0,85.57416,149.6727,998.9,-6.3,-6.2,yes,yes,yes,300234062784500,PAWS,AWI-USIABP,unknown,North
2015-11-05T18:00:00Z,1446746400,2015,18,0,309.75,-999.0,85.57344,149.88024,998.7,-6.2,-6.1,yes,yes,yes,300234062784500,PAWS,AWI-USIABP,unknown,North
2015-11-05T21:00:00Z,1446757200,2015,21,0,309.875,-999.0,85.57272,150.05844,999.8,-6.1,-5.8,yes,yes,yes,300234062784500,PAWS,AWI-USIABP,unknown,North
2015-11-06T00:00:00Z,1446768000,2015,0,0,310.0,-999.0,85.57308,150.22332,1000.1,-6.0,-6.9,yes,yes,yes,300234062784500,PAWS,AWI-USIABP,unknown,North
2015-11-06T03:00:00Z,1446778800,2015,3,0,310.125,-999.0,85.5747,150.41736,1000.9,-5.9,-8.4,yes,yes,yes,300234062784500,PAWS,AWI-USIABP,unknown,North
2015-11-06T06:00:00Z,1446789600,2015,6,0,310.25,-999.0,85.57704,150.61464,1000.7,-5.9,-8.9,yes,yes,yes,300234062784500,PAWS,AWI-USIABP,unknown,North
2015-11-06T09:00:00Z,1446800400,2015,9,0,310.375,-999.0,85.58064,150.77232,1001.5,-5.9,-8.0,yes,yes,yes,300234062784500,PAWS,AWI-USIABP,unknown,North
2015-11-06T12:00:00Z,1446811200,2015,12,0,310.5,-999.0,85.58388,150.9165,1002.2,-5.9,-9.4,yes,yes,yes,300234062784500,PAWS,AWI-USIABP,unknown,North
2015-11-06T15:00:00Z,1446822000,2015,15,0,310.625,-999.0,85.58604,151.05744,1002.7,-5.8,-12.6,yes,yes,yes,300234062784500,PAWS,AWI-USIABP,unknown,North
2015-11-06T18:00:00Z,1446832800,2015,18,0,310.75,-999.0,85.58766,151.17858,1003.2,-5.9,-13.8,yes,yes,yes,300234062784500,PAWS,AWI-USIABP,unknown,North
2015-11-06T21:00:00Z,1446843600,2015,21,0,310.875,-999.0,85.58874,151.26102,1003.9,-5.9,-15.2,yes,yes,yes,300234062784500,PAWS,AWI-USIABP,unknown,North
2015-11-07T00:00:00Z,1446854400,2015,0,0,311.0,-999.0,85.58946,151.32366,1005.5,-6.0,-18.9,yes,yes,yes,300234062784500,PAWS,AWI-USIABP,unknown,North
2015-11-07T03:00:00Z,1446865200,2015,3,0,311.125,-999.0,85.58964,151.38324,1006.3,-6.1,-22.9,yes,yes,yes,300234062784500,PAWS,AWI-USIABP,unknown,North
2015-11-07T06:00:00Z,1446876000,2015,6,0,311.25,-999.0,85.59018,151.43454,1007.2,-6.2,-26.2,yes,yes,yes,300234062784500,PAWS,AWI-USIABP,unknown,North
2015-11-07T09:00:00Z,1446886800,2015,9,0,311.375,-999.0,85.5909,151.45668,1007.9,-6.4,-26.9,yes,yes,yes,300234062784500,PAWS,AWI-USIABP,unknown,North
2015-11-07T12:00:00Z,1446897600,2015,12,0,311.5,-999.0,85.59216,151.46892,1008.2,-6.5,-27.5,yes,yes,yes,300234062784500,PAWS,AWI-USIABP,unknown,North
2015-11-07T15:00:00Z,1446908400,2015,15,0,311.625,-999.0,85.59252,151.49016,1008.7,-6.7,-29.4,yes,yes,yes,300234062784500,PAWS,AWI-USIABP,unknown,North
2015-11-07T18:00:00Z,1446919200,2015,18,0,311.75,-999.0,85.59126,151.5195,1008.9,-6.8,-31.5,yes,yes,yes,300234062784500,PAWS,AWI-USIABP,unknown,North
2015-11-07T21:00:00Z,1446930000,2015,21,0,311.875,-999.0,85.58982,151.5537,1009.4,-7.0,-33.0,yes,yes,yes,300234062784500,PAWS,AWI-USIABP,unknown,North
2015-11-08T00:00:00Z,1446940800,2015,0,0,312.0,-999.0,85.58946,151.60644,1008.9,-7.3,-32.0,yes,yes,yes,300234062784500,PAWS,AWI-USIABP,unknown,North
2015-11-08T03:00:00Z,1446951600,2015,3,0,312.125,-999.0,85.59,151.70436,1008.5,-7.6,-31.0,yes,yes,yes,300234062784500,PAWS,AWI-USIABP,unknown,North
2015-11-08T06:00:00Z,1446962400,2015,6,0,312.25,-999.0,85.59198,151.82586,1007.8,-7.8,-30.6,yes,yes,yes,300234062784500,PAWS,AWI-USIABP,unknown,North
2015-11-08T09:00:00Z,1446973200,2015,9,0,312.375,-999.0,85.59792,151.9632,1006.8,-8.1,-29.0,yes,yes,yes,300234062784500,PAWS,AWI-USIABP,unknown,North
2015-11-08T12:00:00Z,1446984000,2015,12,0,312.5,-999.0,85.60872,152.13366,1004.8,-8.3,-27.0,yes,yes,yes,300234062784500,PAWS,AWI-USIABP,unknown,North